Time,TemperatureF,DewpointF,PressureIn,WindDirection,WindDirectionDegrees,WindSpeedMPH,WindSpeedGustMPH,Humidity,HourlyPrecipIn,Conditions,Clouds,dailyrainin,SolarRadiationWatts/m^2,SoftwareType,DateUTC
2013-02-24 00:01:00,47.0,43.0,-100.00,NNE,17,4.0,7.0,85,0.00,,,0.01,0.000000,,2013-02-24 06:01:00,
2013-02-24 00:32:00,46.0,43.0,-100.00,NNE,26,4.0,6.0,88,0.00,,,0.00,0.000000,,2013-02-24 06:32:00,
2013-02-24 00:42:00,46.0,43.0,-100.00,NNE,26,4.0,6.0,88,0.00,,,0.00,0.000000,,2013-02-24 06:42:00,
2013-02-24 00:52:00,46.0,43.0,-100.00,NNE,26,4.0,6.0,88,0.00,,,0.00,0.000000,,2013-02-24 06:52:00,
2013-02-24 01:01:00,46.0,43.0,-100.00,NNE,26,4.0,6.0,88,0.00,,,0.00,0.000000,,2013-02-24 07:01:00,
2013-02-24 01:32:00,44.0,42.0,-100.00,NNE,18,4.0,6.0,92,0.00,,,0.00,0.000000,,2013-02-24 07:32:00,
2013-02-24 01:42:00,44.0,42.0,-100.00,NNE,18,4.0,6.0,92,0.00,,,0.00,0.000000,,2013-02-24 07:42:00,
2013-02-24 01:52:00,44.0,42.0,-100.00,NNE,18,4.0,6.0,92,0.00,,,0.00,0.000000,,2013-02-24 07:52:00,
2013-02-24 02:01:00,44.0,42.0,-100.00,NNE,18,4.0,6.0,92,0.00,,,0.00,0.000000,,2013-02-24 08:01:00,
2013-02-24 02:32:00,43.0,41.0,-100.00,NNE,15,3.0,6.0,94,0.00,,,0.00,0.000000,,2013-02-24 08:32:00,
2013-02-24 02:42:00,43.0,41.0,-100.00,NNE,15,3.0,6.0,94,0.00,,,0.00,0.000000,,2013-02-24 08:42:00,
2013-02-24 02:54:00,43.0,41.0,-100.00,NNE,15,3.0,6.0,94,0.00,,,0.00,0.000000,,2013-02-24 08:54:00,
2013-02-24 03:01:00,43.0,41.0,-100.00,NNE,15,3.0,6.0,94,0.00,,,0.00,0.000000,,2013-02-24 09:01:00,
2013-02-24 03:32:00,42.0,40.0,-100.00,NNE,15,5.0,8.0,93,0.00,,,0.00,0.000000,,2013-02-24 09:32:00,
2013-02-24 03:42:00,42.0,40.0,-100.00,NNE,15,5.0,8.0,93,0.00,,,0.00,0.000000,,2013-02-24 09:42:00,
2013-02-24 03:52:00,42.0,40.0,-100.00,NNE,15,5.0,8.0,93,0.00,,,0.00,0.000000,,2013-02-24 09:52:00,
2013-02-24 04:01:00,42.0,40.0,-100.00,NNE,15,5.0,8.0,93,0.00,,,0.00,0.000000,,2013-02-24 10:01:00,
2013-02-24 04:32:00,42.0,40.0,-100.00,NNE,27,5.0,11.0,92,0.00,,,0.00,0.000000,,2013-02-24 10:32:00,
2013-02-24 04:42:00,42.0,40.0,-100.00,NNE,27,5.0,11.0,92,0.00,,,0.00,0.000000,,2013-02-24 10:42:00,
2013-02-24 04:52:00,42.0,40.0,-100.00,NNE,27,5.0,11.0,92,0.00,,,0.00,0.000000,,2013-02-24 10:52:00,
2013-02-24 05:01:00,42.0,40.0,-100.00,NNE,27,5.0,11.0,92,0.00,,,0.00,0.000000,,2013-02-24 11:01:00,
2013-02-24 05:32:00,41.0,40.0,-100.00,NE,51,4.0,10.0,96,0.00,,,0.00,0.000000,,2013-02-24 11:32:00,
2013-02-24 05:42:00,41.0,40.0,-100.00,NE,51,4.0,10.0,96,0.00,,,0.00,0.000000,,2013-02-24 11:42:00,
2013-02-24 05:53:00,41.0,40.0,-100.00,NE,51,4.0,10.0,96,0.00,,,0.00,0.000000,,2013-02-24 11:53:00,
2013-02-24 06:01:00,41.0,40.0,-100.00,NE,51,4.0,10.0,96,0.00,,,0.00,0.000000,,2013-02-24 12:01:00,
2013-02-24 06:09:00,40.0,40.0,-100.00,NE,34,6.0,9.0,99,0.00,,,0.00,0.000000,,2013-02-24 12:09:00,
2013-02-24 06:33:00,40.0,40.0,-100.00,NE,34,6.0,9.0,99,0.00,,,0.00,0.000000,,2013-02-24 12:33:00,
2013-02-24 06:46:00,40.0,40.0,-100.00,NE,34,6.0,9.0,99,0.00,,,0.00,0.000000,,2013-02-24 12:46:00,
2013-02-24 06:56:00,40.0,40.0,-100.00,NE,34,6.0,9.0,99,0.00,,,0.00,0.000000,,2013-02-24 12:56:00,
2013-02-24 07:35:00,42.0,42.0,-100.00,NE,51,5.0,9.0,99,0.00,,,0.00,22.000000,,2013-02-24 13:35:00,
2013-02-24 07:45:00,42.0,42.0,-100.00,NE,51,5.0,9.0,99,0.00,,,0.00,22.000000,,2013-02-24 13:45:00,
2013-02-24 07:55:00,42.0,42.0,-100.00,NE,51,5.0,9.0,99,0.00,,,0.00,22.000000,,2013-02-24 13:55:00,
2013-02-24 08:03:00,42.0,42.0,-100.00,NE,51,5.0,9.0,99,0.00,,,0.00,22.000000,,2013-02-24 14:03:00,
2013-02-24 08:34:00,47.0,43.0,-100.00,NE,47,6.0,12.0,87,0.00,,,0.00,202.000000,,2013-02-24 14:34:00,
2013-02-24 08:45:00,47.0,43.0,-100.00,NE,47,6.0,12.0,87,0.00,,,0.00,202.000000,,2013-02-24 14:45:00,
2013-02-24 08:54:00,47.0,43.0,-100.00,NE,47,6.0,12.0,87,0.00,,,0.00,202.000000,,2013-02-24 14:54:00,
2013-02-24 09:03:00,47.0,43.0,-100.00,NE,47,6.0,12.0,87,0.00,,,0.00,202.000000,,2013-02-24 15:03:00,
2013-02-24 09:32:00,52.0,43.0,-100.00,ENE,70,9.0,13.0,70,0.00,,,0.00,400.000000,,2013-02-24 15:32:00,
2013-02-24 09:42:00,52.0,43.0,-100.00,ENE,70,9.0,13.0,70,0.00,,,0.00,400.000000,,2013-02-24 15:42:00,
2013-02-24 09:53:00,52.0,43.0,-100.00,ENE,70,9.0,13.0,70,0.00,,,0.00,400.000000,,2013-02-24 15:53:00,
2013-02-24 10:01:00,52.0,43.0,-100.00,ENE,70,9.0,13.0,70,0.00,,,0.00,400.000000,,2013-02-24 16:01:00,
2013-02-24 10:32:00,57.0,42.0,-100.00,East,90,8.0,12.0,57,0.00,,,0.00,578.000000,,2013-02-24 16:32:00,
2013-02-24 10:42:00,57.0,42.0,-100.00,East,90,8.0,12.0,57,0.00,,,0.00,578.000000,,2013-02-24 16:42:00,
2013-02-24 10:52:00,57.0,42.0,-100.00,East,90,8.0,12.0,57,0.00,,,0.00,578.000000,,2013-02-24 16:52:00,
2013-02-24 11:01:00,57.0,42.0,-100.00,East,90,8.0,12.0,57,0.00,,,0.00,578.000000,,2013-02-24 17:01:00,
2013-02-24 11:32:00,62.0,42.0,-100.00,East,81,6.0,11.0,48,0.00,,,-99.99,705.000000,,2013-02-24 17:32:00,
2013-02-24 11:42:00,62.0,42.0,-100.00,East,81,6.0,11.0,48,0.00,,,-99.99,705.000000,,2013-02-24 17:42:00,
2013-02-24 11:53:00,62.0,42.0,-100.00,East,81,6.0,11.0,48,0.00,,,-99.99,705.000000,,2013-02-24 17:53:00,
2013-02-24 12:01:00,62.0,42.0,-100.00,East,81,6.0,11.0,48,0.00,,,-99.99,705.000000,,2013-02-24 18:01:00,
2013-02-24 12:32:00,65.0,44.0,-100.00,East,82,7.0,14.0,46,0.00,,,0.00,779.000000,,2013-02-24 18:32:00,
2013-02-24 12:42:00,65.0,44.0,-100.00,East,82,7.0,14.0,46,0.00,,,0.00,779.000000,,2013-02-24 18:42:00,
2013-02-24 12:52:00,65.0,44.0,-100.00,East,82,7.0,14.0,46,0.00,,,0.00,779.000000,,2013-02-24 18:52:00,
2013-02-24 13:01:00,65.0,44.0,-100.00,East,82,7.0,14.0,46,0.00,,,0.00,779.000000,,2013-02-24 19:01:00,
2013-02-24 13:32:00,68.0,43.0,-100.00,ENE,76,7.0,13.0,41,0.00,,,0.00,784.000000,,2013-02-24 19:32:00,
2013-02-24 13:42:00,68.0,43.0,-100.00,ENE,76,7.0,13.0,41,0.00,,,0.00,784.000000,,2013-02-24 19:42:00,
2013-02-24 13:52:00,68.0,43.0,-100.00,ENE,76,7.0,13.0,41,0.00,,,0.00,784.000000,,2013-02-24 19:52:00,
2013-02-24 14:02:00,68.0,43.0,-100.00,ENE,76,7.0,13.0,41,0.00,,,0.00,784.000000,,2013-02-24 20:02:00,
2013-02-24 14:32:00,71.0,43.0,-100.00,East,91,6.0,13.0,37,0.00,,,0.00,659.000000,,2013-02-24 20:32:00,
2013-02-24 14:42:00,71.0,43.0,-100.00,East,91,6.0,13.0,37,0.00,,,0.00,659.000000,,2013-02-24 20:42:00,
2013-02-24 14:52:00,71.0,43.0,-100.00,East,91,6.0,13.0,37,0.00,,,0.00,659.000000,,2013-02-24 20:52:00,
2013-02-24 15:01:00,71.0,43.0,-100.00,East,91,6.0,13.0,37,0.00,,,0.00,659.000000,,2013-02-24 21:01:00,
2013-02-24 15:32:00,71.0,43.0,-100.00,ENE,68,8.0,13.0,36,0.00,,,0.00,588.000000,,2013-02-24 21:32:00,
2013-02-24 15:42:00,71.0,43.0,-100.00,ENE,68,8.0,13.0,36,0.00,,,0.00,588.000000,,2013-02-24 21:42:00,
2013-02-24 15:52:00,71.0,43.0,-100.00,ENE,68,8.0,13.0,36,0.00,,,0.00,588.000000,,2013-02-24 21:52:00,
2013-02-24 16:01:00,71.0,43.0,-100.00,ENE,68,8.0,13.0,36,0.00,,,0.00,588.000000,,2013-02-24 22:01:00,
2013-02-24 16:32:00,71.0,42.0,-100.00,East,99,8.0,15.0,35,0.00,,,0.00,415.000000,,2013-02-24 22:32:00,
2013-02-24 16:42:00,71.0,42.0,-100.00,East,99,8.0,15.0,35,0.00,,,0.00,415.000000,,2013-02-24 22:42:00,
2013-02-24 16:52:00,71.0,42.0,-100.00,East,99,8.0,15.0,35,0.00,,,0.00,415.000000,,2013-02-24 22:52:00,
2013-02-24 17:02:00,71.0,42.0,-100.00,East,99,8.0,15.0,35,0.00,,,0.00,415.000000,,2013-02-24 23:02:00,
2013-02-24 17:32:00,67.0,44.0,-100.00,ESE,104,7.0,13.0,43,0.00,,,0.00,105.000000,,2013-02-24 23:32:00,
2013-02-24 17:42:00,67.0,44.0,-100.00,ESE,104,7.0,13.0,43,0.00,,,0.00,105.000000,,2013-02-24 23:42:00,
2013-02-24 17:52:00,67.0,44.0,-100.00,ESE,104,7.0,13.0,43,0.00,,,0.00,105.000000,,2013-02-24 23:52:00,
2013-02-24 18:01:00,67.0,44.0,-100.00,ESE,104,7.0,13.0,43,0.00,,,0.00,105.000000,,2013-02-25 00:01:00,
2013-02-24 18:32:00,64.0,46.0,-100.00,ENE,73,4.0,8.0,52,0.00,,,0.00,18.000000,,2013-02-25 00:32:00,
2013-02-24 18:42:00,64.0,46.0,-100.00,ENE,73,4.0,8.0,52,0.00,,,0.00,18.000000,,2013-02-25 00:42:00,
2013-02-24 18:52:00,64.0,46.0,-100.00,ENE,73,4.0,8.0,52,0.00,,,0.00,18.000000,,2013-02-25 00:52:00,
2013-02-24 19:01:00,64.0,46.0,-100.00,ENE,73,4.0,8.0,52,0.00,,,0.00,18.000000,,2013-02-25 01:01:00,
2013-02-24 19:32:00,62.0,46.0,-100.00,ENE,69,5.0,8.0,56,0.00,,,0.00,0.000000,,2013-02-25 01:32:00,
2013-02-24 19:42:00,62.0,46.0,-100.00,ENE,69,5.0,8.0,56,0.00,,,0.00,0.000000,,2013-02-25 01:42:00,
2013-02-24 19:52:00,62.0,46.0,-100.00,ENE,69,5.0,8.0,56,0.00,,,0.00,0.000000,,2013-02-25 01:52:00,
2013-02-24 20:01:00,62.0,46.0,-100.00,ENE,69,5.0,8.0,56,0.00,,,0.00,0.000000,,2013-02-25 02:01:00,
2013-02-24 20:32:00,63.0,45.0,-100.00,ESE,110,8.0,11.0,52,0.00,,,0.00,0.000000,,2013-02-25 02:32:00,
2013-02-24 20:42:00,63.0,45.0,-100.00,ESE,110,8.0,11.0,52,0.00,,,0.00,0.000000,,2013-02-25 02:42:00,
2013-02-24 20:52:00,63.0,45.0,-100.00,ESE,110,8.0,11.0,52,0.00,,,0.00,0.000000,,2013-02-25 02:52:00,
2013-02-24 21:01:00,63.0,45.0,-100.00,ESE,110,8.0,11.0,52,0.00,,,0.00,0.000000,,2013-02-25 03:01:00,
2013-02-24 21:32:00,62.0,49.0,-100.00,ESE,107,7.0,11.0,62,0.00,,,0.00,0.000000,,2013-02-25 03:32:00,
2013-02-24 21:42:00,62.0,49.0,-100.00,ESE,107,7.0,11.0,62,0.00,,,0.00,0.000000,,2013-02-25 03:42:00,
2013-02-24 21:52:00,62.0,49.0,-100.00,ESE,107,7.0,11.0,62,0.00,,,0.00,0.000000,,2013-02-25 03:52:00,
2013-02-24 22:01:00,62.0,49.0,-100.00,ESE,107,7.0,11.0,62,0.00,,,0.00,0.000000,,2013-02-25 04:01:00,
2013-02-24 22:32:00,58.0,58.0,-100.00,ESE,112,10.0,15.0,100,0.09,,,0.09,0.000000,,2013-02-25 04:32:00,
2013-02-24 22:42:00,58.0,58.0,-100.00,ESE,112,10.0,15.0,100,0.09,,,0.09,0.000000,,2013-02-25 04:42:00,
2013-02-24 22:52:00,58.0,58.0,-100.00,ESE,112,10.0,15.0,100,0.09,,,0.09,0.000000,,2013-02-25 04:52:00,
2013-02-24 23:01:00,58.0,58.0,-100.00,ESE,112,10.0,15.0,100,0.09,,,0.09,0.000000,,2013-02-25 05:01:00,
2013-02-24 23:32:00,58.0,58.0,-100.00,ESE,123,18.0,28.0,100,0.08,,,0.17,0.000000,,2013-02-25 05:32:00,
2013-02-24 23:42:00,58.0,58.0,-100.00,ESE,123,18.0,28.0,100,0.08,,,0.17,0.000000,,2013-02-25 05:42:00,
2013-02-24 23:52:00,58.0,58.0,-100.00,ESE,123,18.0,28.0,100,0.08,,,0.17,0.000000,,2013-02-25 05:52:00,